Terug naar catalogus

CZ-6A DEB

ActiefSSO
NORAD 56612·DEBRIS·🇨🇳 China

Gelanceerd Nov 11, 2022 vanaf Taiyuan Satellite Launch Center

Loading…

Volgende Passages (komende 24 uur)

TLE

VersSource: Space-Track

Epoch: Sep 14, 2026, 05:55 UTC

1 56612U 22151AEL 26257.24674285  .00000592  00000-0  32599-3 0  9998
2 56612  98.8263 262.0665 0036486  50.9935 309.4478 14.15052795174852

Volg CZ-6A DEB in realtime met AllMySat

Download on the App Store